Main page
METAR-TAF:

METAR-TAF

Airports :

DeLand Municipal Airport

DeLand, Florida, United States

latitude: 29-04-01N, longitude: 081-17-02W, elevation: 79 ft

Current weather observation

The report was made 17 minutes ago, at 21:55 UTC
Wind 12 mph from the East/Southeast
Temperature 81°F
Humidity 62%
Pressure 30.17 in. Hg
Visibility: 10 miles
Broken clouds at a height of 6500 ft
Broken clouds at a height of 8000 ft

METAR: KDED 272155Z AUTO 12010KT 10SM BKN065 BKN080 27/19 A3017 RMK AO2 T02700191

Time: 17:12 (22:12 UTC)


TAF: missing

Weather observations and forecasts of more than 4000 airports (METAR and TAF reports).

The available stations are represented by yellow and red dots on the map.

Hover mouse over dot to see the name of the station.

Then click to see weather observations and forecasts.

To change the map : click on the green buttons with a black cross to zoom in, on the green button with a dash to zoom out, or on the green arrows for adjacent maps.


METAR-TAF: